Regional Weather Roundup
Issued by NWS

Home | Current Version | Previous Version | Text Only | Print | Product List | Glossary Off
Versions: 1 2 3 4 5 6 7 8 9 10 11 12 13 14 15 16 17 18 19 20 21 22 23 24 25 26 27 28

000
ASUS45 KBOI 160410
RWRID

IDAHO REGIONAL WEATHER ROUNDUP
NATIONAL WEATHER SERVICE BOISE ID
900 PM MST FRI DEC 15 2017

NOTE: "FAIR" INDICATES FEW OR NO CLOUDS BELOW 12000 FEET
WITH NO SIGNIFICANT WEATHER AND/OR OBSTRUCTIONS TO VISIBILITY

IDZ012-014-160500-
SOUTHWEST IDAHO


CITY           SKY/WX    TMP DP  RH WIND       PRES   REMARKS
BOISE          LGT SNOW  27  24  89 NW8       30.13S VSB 1   WCI  19
CALDWELL       LGT SNOW  28  27  93 W6        30.16F FOG     WCI  22
MOUNTAIN HOME  CLOUDY    27  27 100 W9        30.11S WCI  18
$$

IDZ016-017-160500-
SOUTHCENTRAL IDAHO


CITY           SKY/WX    TMP DP  RH WIND       PRES   REMARKS
BURLEY         CLOUDY    31  25  78 SW5       29.99F WCI  26
JEROME         CLOUDY    25  24  96 W8        30.03F FOG     WCI  16
TWIN FALLS     CLOUDY    27  26  96 W8        30.02F FOG     WCI  19
$$

IDZ019>023-160500-
SOUTHEAST IDAHO


CITY           SKY/WX    TMP DP  RH WIND       PRES   REMARKS
IDAHO FALLS    CLOUDY    24  23  96 NE3       29.99F
POCATELLO      CLOUDY    24  21  88 S5        30.00F WCI  18
REXBURG        CLOUDY    23  21  92 CALM      29.98F
$$

IDZ006-010-011-018-031-032-160500-
CENTRAL IDAHO MOUNTAINS


CITY           SKY/WX    TMP DP  RH WIND       PRES   REMARKS
MCCALL         LGT SNOW  24  21  88 CALM      30.00R FOG
HAILEY         MOCLDY    27  25  93 CALM      29.99F
STANLEY          N/A     23  18  81 E5        29.95F WCI  17
SALMON         CLOUDY    25  21  85 CALM      30.01F
CHALLIS        CLOUDY    23  19  85 CALM      29.95S
$$

IDZ002-004-006-007-026-160500-
NORTHERN IDAHO


CITY           SKY/WX    TMP DP  RH WIND       PRES   REMARKS
LEWISTON       LGT SNOW  29  29 100 CALM      30.13S FOG
LOWELL           N/A     32  32 100 CALM      30.12F
COEUR D`ALENE  FLURRIES  26  24  92 SW5       30.09S WCI  20
MULLAN PASS    CLOUDY    20  19  96 S3        29.89F
$$




USA.gov is the U.S. government's official web portal to all federal, state and local government web resources and services.